Regional Weather Roundup
Issued by NWS

Home | Current Version | Previous Version | Text Only | Print | Product List | Glossary On
Versions: 1 2 3 4 5 6 7 8 9 10 11 12 13 14 15 16 17 18 19 20 21 22 23 24 25 26 27 28 29 30 31 32 33 34 35 36 37 38 39 40 41 42 43 44 45 46 47 48 49 50
000
ASUS43 KLMK 010710
RWRKY
KENTUCKY REGIONAL WEATHER ROUNDUP
NATIONAL WEATHER SERVICE LOUISVILLE KY
300 AM EDT SAT AUG 01 2015

NOTE "FAIR" INDICATES FEW OR NO CLOUDS BELOW 12,000 FEET
WITH NO SIGNIFICANT WEATHER AND/OR OBSTRUCTIONS TO VISIBILITY.

KYZ001>023-026-027-061>063-070>075-010800-
WESTERN AND SOUTH CENTRAL KENTUCKY

CITY           SKY/WX    TMP DP  RH WIND       PRES   REMARKS
PADUCAH        CLEAR     70  67  90 W3        30.03F
HENDERSON      CLEAR     70  64  83 SW3       30.01F
OWENSBORO      CLEAR     73  70  91 CALM      30.02F
HOPKINSVILLE   CLEAR     71  69  91 SW3       30.03F
BOWLING GREEN  CLEAR     69  65  86 CALM      30.03F
GLASGOW        CLEAR    N/A N/A N/A CALM      30.03F
$$

KYZ024-025-028>034-038-045-046-053-010800-
NORTH CENTRAL KENTUCKY

CITY           SKY/WX    TMP DP  RH WIND       PRES   REMARKS
LOUISVILLE/SDF PTCLDY    75  65  70 CALM      30.00F
LOUISVILLE/LOU CLEAR     72  64  76 CALM      30.01F
FORT KNOX      CLEAR     67  64  89 CALM      30.01S
$$

KYZ035>037-039>044-047>052-055>060-089>105-010800-
NORTHEAST KENTUCKY

CITY           SKY/WX    TMP DP  RH WIND       PRES   REMARKS
LEXINGTON      CLEAR     69  60  73 CALM      30.02F
COVINGTON      CLEAR     68  61  78 W7        30.00S
FRANKFORT      CLEAR     67  61  81 CALM      30.00F
$$

KYZ054-064>069-076>088-106>120-010800-
SOUTHEAST KENTUCKY

CITY           SKY/WX    TMP DP  RH WIND       PRES   REMARKS
JACKSON        CLEAR     66  61  84 CALM      30.03F
LONDON         CLEAR     64  60  87 CALM      30.05F
SOMERSET       CLEAR     63  63 100 CALM      30.05F
MIDDLESBORO    CLEAR     62  61  97 CALM      30.07F
MONTICELLO     SUNNY     61  61 100 CALM      30.07F
$$



USA.gov is the U.S. government's official web portal to all federal, state and local government web resources and services.